Simultaneous Nadir Overpasses (SNOs) Predictions

Prediction of SNOs between GOES-15 and LANDSAT-8 Satellite Orbit:

Table of predicted SNOs for the next 14.0 days since TLE Epoch: 12/31/2023
Index Date Time (GOES-15) GOES-15 Lat,Lon LANDSAT-8 Lat,Lon Distance(km) Time Diff (sec)
1 12/31/2023 05:53:14 -0.06, 61.34 -0.84, 65.02 418.29 80
2 12/31/2023 18:14:38 0.05, 61.37 -0.25, 59.82 175.01 80
3 01/02/2024 17:59:44 0.05, 61.40 0.33, 62.80 159.05 80
4 01/03/2024 06:20:59 -0.04, 61.39 0.77, 57.64 425.99 80
5 01/04/2024 17:47:31 0.05, 61.42 0.98, 65.76 492.87 80
6 01/05/2024 06:08:46 -0.04, 61.42 0.11, 60.60 92.04 80
7 01/07/2024 05:59:12 -0.04, 61.45 -0.50, 63.57 241.30 80
8 01/07/2024 18:20:35 0.03, 61.47 -0.63, 58.39 350.14 80
9 01/09/2024 18:08:21 0.03, 61.51 0.00, 61.35 18.05 80
10 01/11/2024 17:53:26 0.04, 61.57 0.60, 64.33 313.45 80
11 01/12/2024 06:14:41 -0.03, 61.59 0.49, 59.17 274.34 80
